EW8655 Weather Reports


time (UTC)temp
C
wind
direction
speed
KPH
gust
KPH
rain 1hr
cm
rain 24hr
cm
rain mn
cm
humidity
%
barometer
mb
20260509112506 9 175 3.2 8.0 0.00 0.00 0.00 72 1007.6
20260509112006 9 174 0.0 8.0 0.00 0.00 0.00 72 1007.1
20260509111505 8 162 1.6 8.0 0.00 0.00 0.00 72 1007.6
20260509110506 8 178 8.0 8.0 0.00 0.00 0.00 72 1007.6
20260509110005 8 181 8.0 8.0 0.00 0.00 0.00 72 1007.1
20260509105505 8 188 8.0 8.0 0.00 0.00 0.00 72 1007.1
20260509105008 8 182 8.0 8.0 0.00 0.00 0.00 72 1007.1
20260509104507 8 189 8.0 11.3 0.00 0.00 0.00 72 1007.1
20260509104009 8 184 8.0 11.3 0.00 0.00 0.00 72 1007.1
20260509103009 8 182 8.0 8.0 0.00 0.00 0.00 72 1007.1
20260509102507 8 175 8.0 8.0 0.00 0.00 0.00 72 1007.1
20260509102009 8 169 8.0 8.0 0.00 0.00 0.00 71 1007.1
20260509101507 8 162 8.0 8.0 0.00 0.00 0.00 71 1007.1
20260509101008 8 165 8.0 8.0 0.00 0.00 0.00 71 1007.1
20260509100507 8 169 4.8 8.0 0.00 0.00 0.00 71 1007.1
20260509100007 7 166 3.2 8.0 0.00 0.00 0.00 71 1007.1
20260509095008 7 162 8.0 8.0 0.00 0.00 0.00 71 1007.6
20260509094507 7 174 8.0 8.0 0.00 0.00 0.00 71 1007.1
20260509094009 7 189 8.0 11.3 0.00 0.00 0.00 71 1007.5
20260509093508 7 172 8.0 11.3 0.00 0.00 0.00 71 1007.1
20260509093009 7 172 8.0 8.0 0.00 0.00 0.00 71 1007.6
20260509092508 7 171 8.0 11.3 0.00 0.00 0.00 71 1007.2
20260509092009 7 168 8.0 11.3 0.00 0.00 0.00 71 1007.1
20260509090508 7 176 4.8 8.0 0.00 0.00 0.00 71 1008.1
20260509090007 7 157 8.0 8.0 0.00 0.00 0.00 71 1008.1
20260509085507 7 156 8.0 8.0 0.00 0.00 0.00 71 1008.1
20260509084507 7 171 6.4 8.0 0.00 0.00 0.00 71 1008.1
20260509083008 7 158 8.0 8.0 0.00 0.00 0.00 70 1008.1
20260509082508 7 163 8.0 8.0 0.00 0.00 0.00 70 1008.1
20260509081507 7 162 8.0 8.0 0.00 0.00 0.00 70 1008.1
20260509080507 7 159 8.0 8.0 0.00 0.00 0.00 69 1008.1
20260509080007 7 162 3.2 8.0 0.00 0.00 0.00 69 1008.1
20260509075507 7 157 4.8 8.0 0.00 0.00 0.00 69 1008.1
20260509075008 7 160 8.0 8.0 0.00 0.00 0.00 69 1008.1
20260509074507 7 153 3.2 8.0 0.00 0.00 0.00 69 1008.1
20260509074008 8 158 3.2 8.0 0.00 0.00 0.00 69 1008.1
20260509073507 8 148 3.2 8.0 0.00 0.00 0.00 69 1008.1
20260509073008 8 147 8.0 11.3 0.00 0.00 0.00 69 1008.1
20260509072009 8 172 8.0 11.3 0.00 0.00 0.00 69 1008.1
20260509071009 8 169 8.0 11.3 0.00 0.00 0.00 69 1008.1
20260509070006 8 184 11.3 11.3 0.00 0.00 0.00 69 1008.1
20260509065507 8 172 8.0 11.3 0.00 0.00 0.00 69 1008.1
20260509065008 8 177 8.0 11.3 0.00 0.00 0.00 69 1008.1
20260509064507 8 173 8.0 11.3 0.00 0.00 0.00 68 1008.1
20260509064008 8 182 8.0 11.3 0.00 0.00 0.00 68 1008.1
20260509063508 8 181 8.0 11.3 0.00 0.00 0.00 68 1008.1
20260509063008 8 179 8.0 11.3 0.00 0.00 0.00 68 1008.1
20260509062506 8 184 8.0 11.3 0.00 0.00 0.00 68 1008.1
20260509062008 8 180 8.0 11.3 0.00 0.00 0.00 68 1008.1
20260509061507 8 174 8.0 14.5 0.00 0.00 0.00 68 1008.1
20260509061008 8 174 11.3 14.5 0.00 0.00 0.00 68 1008.1
20260509060507 8 177 11.3 14.5 0.00 0.00 0.00 68 1009.0
20260509060006 8 183 11.3 14.5 0.00 0.00 0.00 68 1009.1
20260509055507 8 177 11.3 14.5 0.00 0.00 0.00 68 1008.6
20260509054507 8 177 8.0 11.3 0.00 0.00 0.00 69 1009.1
20260509054008 8 174 8.0 11.3 0.00 0.00 0.00 69 1009.1
20260509053508 8 181 8.0 11.3 0.00 0.00 0.00 69 1009.1
20260509053008 8 181 8.0 11.3 0.00 0.00 0.00 68 1009.1
20260509052507 9 188 8.0 11.3 0.00 0.00 0.00 69 1009.1
20260509052008 9 188 8.0 11.3 0.00 0.00 0.00 69 1009.1
20260509051008 9 191 8.0 11.3 0.00 0.00 0.00 69 1009.1
20260509050507 9 193 8.0 11.3 0.00 0.00 0.00 69 1009.1
20260509045008 8 177 3.2 8.0 0.00 0.00 0.00 70 1009.1
20260509044507 8 180 8.0 8.0 0.00 0.00 0.00 70 1009.1
20260509043507 9 178 8.0 11.3 0.00 0.00 0.00 70 1009.1
20260509042506 9 161 8.0 8.0 0.00 0.00 0.00 71 1009.1
20260509042007 9 162 4.8 8.0 0.00 0.00 0.00 71 1009.1
20260509041507 9 160 3.2 11.3 0.00 0.00 0.00 71 1009.6
20260509040007 9 161 8.0 8.0 0.00 0.00 0.00 70 1010.1
20260509035008 9 165 8.0 8.0 0.00 0.00 0.00 71 1010.1
20260509034507 9 156 3.2 8.0 0.00 0.00 0.00 71 1010.1
20260509033508 9 162 8.0 8.0 0.00 0.00 0.00 71 1010.1
20260509033008 9 158 8.0 8.0 0.00 0.00 0.00 71 1010.1
20260509032506 9 161 6.4 8.0 0.00 0.00 0.00 71 1010.1
20260509032008 9 151 8.0 8.0 0.00 0.00 0.00 71 1010.1
20260509031507 9 160 8.0 8.0 0.00 0.00 0.00 71 1010.1
20260509030507 9 161 8.0 8.0 0.00 0.00 0.00 71 1010.1
20260509030006 8 161 3.2 8.0 0.00 0.00 0.00 71 1010.1
20260509025507 8 158 3.2 8.0 0.00 0.00 0.00 71 1010.1
20260509024506 9 144 3.2 8.0 0.00 0.00 0.00 70 1010.1
20260509024008 9 147 3.2 8.0 0.00 0.00 0.00 69 1010.1
20260509023507 9 139 3.2 8.0 0.00 0.00 0.00 69 1010.1
20260509022506 9 140 3.2 8.0 0.00 0.00 0.00 69 1010.1
20260509022007 9 139 3.2 8.0 0.00 0.00 0.00 69 1010.1
20260509021507 9 138 0.0 3.2 0.00 0.00 0.00 69 1010.1
20260509020508 8 123 0.0 0.0 0.00 0.00 0.00 69 1010.1
20260509015008 9 130 0.0 3.2 0.00 0.00 0.00 70 1010.1
20260509014506 9 135 0.0 3.2 0.00 0.00 0.00 70 1010.1
20260509014008 9 117 0.0 3.2 0.00 0.00 0.00 71 1010.1
20260509013507 9 127 0.0 8.0 0.00 0.00 0.00 71 1010.1
20260509013008 9 129 1.6 8.0 0.00 0.00 0.00 73 1010.1
20260509012506 9 137 3.2 8.0 0.00 0.00 0.00 74 1010.1
20260509012007 8 130 0.0 3.2 0.00 0.00 0.00 75 1010.1
20260509011507 8 134 0.0 8.0 0.00 0.00 0.00 76 1010.1
20260509011008 8 137 3.2 8.0 0.00 0.00 0.00 76 1010.1
20260509010507 8 112 3.2 8.0 0.00 0.00 0.00 76 1009.1
20260509010007 9 109 3.2 8.0 0.00 0.00 0.00 75 1009.1
20260509005506 9 114 3.2 8.0 0.00 0.00 0.00 74 1009.1
20260509005007 9 117 0.0 3.2 0.00 0.00 0.00 74 1009.1
20260509004507 9 126 0.0 3.2 0.00 0.00 0.00 74 1009.1
20260509004007 9 119 0.0 3.2 0.00 0.00 0.00 74 1009.1
20260509003507 9 122 0.0 3.2 0.00 0.00 0.00 74 1009.1
20260509003008 9 137 0.0 3.2 0.00 0.00 0.00 74 1009.1
20260509002506 9 128 0.0 3.2 0.00 0.00 0.00 75 1009.1
20260509002007 9 133 0.0 8.0 0.00 0.00 0.00 76 1009.1
20260509001506 9 120 3.2 8.0 0.00 0.00 0.00 77 1009.1
20260509001008 9 121 3.2 8.0 0.00 0.00 0.00 77 1009.1
20260509000507 9 114 3.2 8.0 0.00 0.00 0.00 78 1009.1
20260509000006 9 125 3.2 8.0 0.00 0.00 0.00 78 1009.1
20260508235506 10 115 3.2 8.0 0.00 0.00 0.00 77 1009.1
20260508235007 10 120 3.2 8.0 0.00 0.00 0.00 77 1009.1
20260508234507 10 109 3.2 8.0 0.00 0.00 0.00 76 1009.1
20260508233507 9 112 0.0 3.2 0.00 0.00 0.00 76 1009.1
20260508233007 9 110 3.2 3.2 0.00 0.00 0.00 76 1009.1
20260508232507 9 118 3.2 8.0 0.00 0.00 0.00 76 1009.1
20260508232007 9 115 3.2 8.0 0.00 0.00 0.00 76 1009.1
20260508231507 9 114 3.2 8.0 0.00 0.00 0.00 76 1009.1
20260508231008 10 115 3.2 8.0 0.00 0.00 0.00 77 1009.1
20260508230006 10 121 3.2 11.3 0.00 0.00 0.00 77 1008.9
20260508225507 10 97 3.2 11.3 0.00 0.00 0.00 77 1009.1
20260508225008 10 117 3.2 11.3 0.00 0.00 0.00 77 1009.1
20260508224506 10 100 3.2 8.0 0.00 0.00 0.00 77 1009.1
20260508224007 10 104 3.2 8.0 0.00 0.00 0.00 78 1008.6
20260508223507 10 116 4.8 14.5 0.00 0.00 0.00 78 1009.1
20260508223007 9 101 8.0 14.5 0.00 0.00 0.00 79 1009.1
20260508222506 9 89 11.3 14.5 0.00 0.00 0.00 79 1008.1
20260508222007 9 95 8.0 14.5 0.00 0.00 0.00 79 1008.1
20260508221506 9 119 8.0 14.5 0.00 0.00 0.00 79 1009.1
20260508221007 10 120 4.8 11.3 0.00 0.00 0.00 79 1009.1
20260508220507 10 114 8.0 11.3 0.00 0.00 0.00 79 1009.1
20260508220006 9 124 8.0 11.3 0.00 0.00 0.00 79 1009.1
20260508215507 9 82 11.3 11.3 0.00 0.00 0.00 79 1009.1
20260508215007 9 71 8.0 11.3 0.00 0.00 0.00 78 1009.1
20260508214506 9 113 8.0 14.5 0.00 0.00 0.00 78 1009.1
20260508213506 9 91 8.0 14.5 0.00 0.00 0.00 78 1009.1
20260508213007 9 108 8.0 11.3 0.00 0.00 0.00 78 1009.1
20260508211507 9 97 8.0 11.3 0.00 0.00 0.00 77 1009.1
20260508211007 9 94 8.0 11.3 0.00 0.00 0.00 76 1009.1
20260508210507 9 64 8.0 11.3 0.00 0.00 0.00 76 1009.1
20260508210006 9 61 8.0 11.3 0.00 0.00 0.00 76 1009.1
20260508205506 9 62 8.0 11.3 0.00 0.00 0.00 75 1009.1
20260508205007 9 80 8.0 11.3 0.00 0.00 0.00 75 1009.1
20260508204507 9 74 8.0 11.3 0.00 0.00 0.00 74 1009.1
20260508204007 9 80 8.0 11.3 0.00 0.00 0.00 74 1009.1
20260508203507 9 94 8.0 11.3 0.00 0.00 0.00 74 1009.1
20260508202505 10 97 8.0 8.0 0.00 0.00 0.00 72 1009.1
20260508202007 9 96 8.0 8.0 0.00 0.00 0.00 72 1009.1
20260508201506 9 64 3.2 8.0 0.00 0.00 0.00 72 1009.6
20260508201007 9 56 8.0 8.0 0.00 0.00 0.00 73 1010.1
20260508195506 9 57 8.0 11.3 0.00 0.00 0.00 73 1010.1
20260508195006 9 70 8.0 11.3 0.00 0.00 0.00 74 1010.1
20260508194506 9 63 8.0 11.3 0.00 0.00 0.00 74 1010.1
20260508194007 8 54 8.0 11.3 0.00 0.00 0.00 75 1010.1
20260508193507 8 34 8.0 11.3 0.00 0.00 0.00 75 1010.1
20260508193007 8 51 8.0 11.3 0.00 0.00 0.00 75 1010.1
20260508191506 8 48 8.0 11.3 0.00 0.00 0.00 75 1010.1
20260508191007 8 27 8.0 14.5 0.00 0.00 0.00 75 1010.1
20260508190507 8 21 11.3 14.5 0.00 0.00 0.00 75 1010.1
20260508190005 8 18 11.3 11.3 0.00 0.00 0.00 76 1010.1
20260508185506 8 33 8.0 11.3 0.00 0.00 0.00 76 1010.1
20260508185007 8 44 8.0 11.3 0.00 0.00 0.00 76 1010.1
20260508184506 8 44 11.3 14.5 0.00 0.00 0.00 76 1010.1
20260508183506 8 49 11.3 14.5 0.00 0.00 0.00 76 1010.1
20260508183007 8 46 11.3 14.5 0.00 0.00 0.00 76 1010.1
20260508182506 8 45 11.3 14.5 0.00 0.00 0.00 76 1010.1
20260508182006 8 37 11.3 14.5 0.00 0.00 0.00 76 1010.1
20260508180506 8 48 11.3 14.5 0.00 0.00 0.00 77 1010.1
20260508180006 8 47 11.3 11.3 0.00 0.00 0.00 77 1010.1
20260508175505 8 40 11.3 11.3 0.00 0.00 0.00 77 1010.1
20260508175007 8 53 11.3 14.5 0.00 0.00 0.00 77 1010.1
20260508174505 8 45 9.7 14.5 0.00 0.00 0.00 77 1010.1
20260508174006 8 45 8.0 11.3 0.00 0.00 0.00 77 1010.1
20260508173506 8 42 8.0 11.3 0.00 0.00 0.00 76 1010.1
20260508173007 8 43 9.7 11.3 0.00 0.00 0.00 76 1010.1
20260508172506 9 44 4.8 19.3 0.00 0.00 0.00 76 1010.1
20260508172006 8 62 11.3 19.3 0.00 0.00 0.00 76 1010.1
20260508171505 9 50 8.0 14.5 0.00 0.00 0.00 76 1010.1
20260508171006 9 56 9.7 14.5 0.00 0.00 0.00 75 1010.1
20260508170506 10 23 3.2 14.5 0.00 0.00 0.00 74 1010.1
20260508170006 10 51 3.2 8.0 0.00 0.00 0.00 75 1010.1
20260508165506 10 55 3.2 8.0 0.00 0.00 0.00 74 1010.1
20260508165007 10 52 3.2 8.0 0.00 0.00 0.00 74 1010.2
20260508164006 10 39 4.8 8.0 0.00 0.00 0.00 73 1011.1
20260508163507 10 28 4.8 8.0 0.00 0.00 0.00 72 1011.1
20260508163006 11 66 0.0 8.0 0.00 0.00 0.00 71 1012.1
20260508162007 10 249 8.0 11.3 0.00 0.00 0.00 71 1012.1
20260508161506 10 276 3.2 11.3 0.00 0.00 0.00 71 1012.1
20260508161007 10 263 3.2 8.0 0.00 0.00 0.00 72 1012.1
20260508160006 10 358 3.2 8.0 0.00 0.00 0.00 73 1012.1
20260508155505 9 280 3.2 14.5 0.00 0.00 0.00 74 1012.1
20260508155006 9 270 8.0 14.5 0.00 0.00 0.00 75 1012.1
20260508154006 8 214 11.3 19.3 0.00 0.00 0.00 77 1012.1
20260508153506 8 230 11.3 19.3 0.00 0.00 0.00 78 1012.1
20260508152505 8 234 11.3 14.5 0.00 0.00 0.00 80 1012.1
20260508152007 8 267 9.7 19.3 0.00 0.00 0.00 81 1012.1
20260508151506 8 227 14.5 19.3 0.00 0.00 0.00 83 1012.1
20260508151006 8 267 11.3 22.5 0.00 0.00 0.00 83 1012.1
20260508150507 8 262 14.5 22.5 0.00 0.00 0.00 83 1012.1
20260508150006 8 248 14.5 22.5 0.00 0.00 0.00 83 1012.1
20260508145506 7 244 19.3 22.5 0.00 0.00 0.00 84 1012.1
20260508144506 7 241 19.3 22.5 0.00 0.00 0.00 85 1012.1
20260508144006 7 245 19.3 22.5 0.00 0.00 0.00 85 1012.1
20260508143507 7 242 17.7 22.5 0.00 0.00 0.00 86 1012.1
20260508143007 7 240 19.3 22.5 0.00 0.00 0.00 86 1012.1
20260508142505 7 251 19.3 22.5 0.00 0.00 0.00 87 1012.1
20260508142006 7 250 19.3 22.5 0.00 0.00 0.00 87 1012.1
20260508141506 7 225 19.3 22.5 0.00 0.00 0.00 88 1012.1
20260508141006 7 251 19.3 22.5 0.00 0.00 0.00 88 1012.1
20260508135506 6 235 14.5 19.3 0.00 0.00 0.00 91 1012.1
20260508135006 6 228 14.5 19.3 0.00 0.00 0.00 92 1012.1
20260508134007 6 244 19.3 25.7 0.00 0.00 0.00 93 1012.1
20260508133506 5 252 22.5 25.7 0.00 0.00 0.00 93 1012.1
20260508133006 6 248 19.3 25.7 0.00 0.00 0.00 93 1012.1
20260508132506 6 223 19.3 25.7 0.00 0.00 0.00 93 1012.1
20260508132007 6 225 22.5 25.7 0.00 0.00 0.00 94 1012.1
20260508131505 6 253 22.5 29.0 0.00 0.00 0.00 93 1012.1
20260508131006 6 249 24.1 29.0 0.00 0.00 0.00 94 1012.1
20260508130506 6 246 19.3 29.0 0.00 0.00 0.00 94 1012.1
20260508130005 6 240 17.7 22.5 0.00 0.00 0.00 94 1012.1
20260508125505 6 246 14.5 22.5 0.00 0.00 0.00 93 1012.1
20260508125006 6 232 14.5 25.7 0.00 0.00 0.00 93 1012.1
20260508124006 6 234 16.1 25.7 0.00 0.00 0.00 94 1012.1
20260508123506 6 286 14.5 22.5 0.00 0.00 0.00 95 1012.1
20260508122505 6 263 14.5 25.7 0.00 0.00 0.00 95 1012.1
20260508122007 6 259 19.3 25.7 0.00 0.00 0.00 95 1012.1
20260508121506 6 250 16.1 25.7 0.00 0.00 0.00 95 1012.1
20260508121006 6 253 14.5 19.3 0.00 0.00 0.00 95 1012.1
20260508120005 6 283 11.3 14.5 0.00 0.00 0.00 95 1012.1
20260508115505 6 256 11.3 14.5 0.00 0.00 0.00 95 1012.1
20260508115006 6 252 11.3 14.5 0.00 0.00 0.00 96 1012.1
20260508114505 6 260 8.0 11.3 0.00 0.00 0.00 96 1012.1
20260508114007 6 251 8.0 11.3 0.00 0.00 0.00 96 1012.1
20260508113506 6 244 8.0 11.3 0.00 0.00 0.00 96 1011.7
20260508113006 6 244 11.3 11.3 0.00 0.00 0.00 96 1011.1